Parkersburg, WV

10:50 PM EDT on October 23, 2019 (GMT -0400)
Wood County Wilson

Weather History for KPKB - August, 2019

Change the Weather History Date:

Tuesday, August 20, 2019

  Actual Average Record
Temperature  
Mean Temperature 80 °F 73 °F  
Max Temperature 90 °F 84 °F 98 °F (1983)
Min Temperature 69 °F 62 °F 51 °F (1943)
Degree Days  
Heating Degree Days 0 0  
Month to date heating degree days 0 0  
Since 1 June heating degree days 16 20  
Since 1 July heating degree days 0 1  
Cooling Degree Days 14 8  
Month to date cooling degree days 208 178  
Year to date cooling degree days 905 745  
Since 1 June cooling degree days 760 661  
Growing Degree Days 30 (Base 50)    
Moisture  
Dew Point 70 °F    
Average Humidity 81    
Maximum Humidity 100    
Minimum Humidity 52    
Precipitation  
Precipitation 0.21 in 0.12 in 1.90 in (1988)
Month to date precipitation 3.25 2.40  
Year to date precipitation 32.69 27.58  
Sea Level Pressure  
Sea Level Pressure 30.08 in    
Wind  
Wind Speed 3 mph ()    
Max Wind Speed 10 mph    
Max Gust Speed 25 mph    
Visibility 8.7 miles    
Events Rain , Thunderstorm    
T = Trace of Precipitation, MM = Missing Value Source: Averaged Metar Reports

Daily Weather History Graph

Daily Weather History Graph

Search for Another Location

Airport or City:

Astronomy

Aug. 20, 2019 Rise Set
Actual Time 6:42 AM EDT 8:14 PM EDT
Civil Twilight 6:14 AM EDT 8:42 PM EDT
Nautical Twilight 5:40 AM EDT 9:16 PM EDT
Astronomical Twilight 5:04 AM EDT 9:52 PM EDT
Moon 11:04 PM EDT (8/20) 11:18 AM EDT (8/20)
Length of Visible Light 14h 28m
Length of Day
13h 31m
Waning Gibbous, 78% of the Moon is Illuminated
Aug 20
Waning Gibbous
Aug 23
Last Quarter
Aug 30
New
Sep 5
First Quarter
Sep 14
Full

Hourly Weather History & Observations

Time (EDT) Temp. Heat Index Dew Point Humidity Pressure Visibility Wind Dir Wind Speed Gust Speed Precip Events Conditions
12:53 AM 73.9 °F - 71.1 °F 91% 30.09 in 7.0 mi Calm Calm - N/A   Clear
1:53 AM 73.0 °F - 71.1 °F 93% 30.09 in 7.0 mi Calm Calm - N/A   Clear
2:53 AM 73.0 °F - 70.0 °F 90% 30.08 in 5.0 mi Calm Calm - N/A   Mostly Cloudy
3:43 AM 72.0 °F - 70.0 °F 93% 30.11 in 4.0 mi NNW 8.1 mph - N/A   Scattered Clouds
3:53 AM 72.0 °F - 71.1 °F 97% 30.08 in 5.0 mi NNW 4.6 mph - N/A   Partly Cloudy
4:53 AM 72.0 °F - 70.0 °F 93% 30.07 in 9.0 mi SE 3.5 mph - N/A   Clear
5:34 AM 72.0 °F - 69.1 °F 91% 30.11 in 7.0 mi Calm Calm - N/A Thunderstorm Partly Cloudy
5:53 AM 72.0 °F - 70.0 °F 93% 30.10 in 7.0 mi NW 8.1 mph - N/A Thunderstorm Scattered Clouds
6:20 AM 73.9 °F - 68.0 °F 82% 30.13 in 8.0 mi West 6.9 mph - 0.00 in Rain , Thunderstorm Light Thunderstorms and Rain
6:24 AM 73.9 °F - 66.9 °F 79% 30.13 in 1.8 mi NNE 10.4 mph 25.3 mph 0.17 in Rain , Thunderstorm Heavy Thunderstorms and Rain
6:53 AM 71.6 °F - 68.0 °F 88% 30.12 in 10.0 mi ENE 4.6 mph - N/A Rain , Thunderstorm Light Rain
7:53 AM 72.0 °F - 68.0 °F 87% 30.14 in 10.0 mi Calm Calm - 0.00 in Thunderstorm Mostly Cloudy
8:53 AM 69.1 °F - 66.9 °F 93% 30.13 in 10.0 mi SE 6.9 mph - 0.03 in Thunderstorm Partly Cloudy
9:34 AM 69.1 °F - 66.9 °F 93% 30.15 in 10.0 mi Calm Calm - 0.01 in Rain Light Rain
9:53 AM 71.1 °F - 68.0 °F 90% 30.11 in 10.0 mi Calm Calm - 0.01 in   Mostly Cloudy
10:53 AM 75.0 °F - 70.0 °F 84% 30.12 in 10.0 mi NNE 3.5 mph - N/A   Clear
11:53 AM 79.0 °F - 70.0 °F 74% 30.12 in 10.0 mi ESE 5.8 mph - N/A   Partly Cloudy
12:53 PM 84.2 °F 89.6 °F 71.6 °F 66% 30.11 in 10.0 mi SW 4.6 mph - N/A   Clear
1:53 PM 86.0 °F 90.7 °F 70.0 °F 59% 30.06 in 10.0 mi SSW 4.6 mph - N/A   Clear
2:53 PM 87.8 °F 91.4 °F 68.0 °F 52% 30.09 in 10.0 mi South 4.6 mph - N/A   Clear
3:53 PM 90.0 °F 97.9 °F 73.0 °F 57% 30.05 in 10.0 mi SSW 6.9 mph - N/A   Clear
4:53 PM 90.0 °F 97.9 °F 73.0 °F 57% 30.01 in 10.0 mi SSW 4.6 mph - N/A   Clear
5:53 PM 87.8 °F 95.6 °F 73.4 °F 62% 30.03 in 10.0 mi SSW 4.6 mph - N/A   Clear
6:53 PM 84.2 °F 92.3 °F 75.2 °F 74% 30.02 in 10.0 mi SSW 4.6 mph - N/A   Clear
7:53 PM 82.4 °F 89.5 °F 75.2 °F 79% 30.02 in 10.0 mi SSW 4.6 mph - N/A   Mostly Cloudy
8:05 PM 82.4 °F 89.5 °F 75.2 °F 79% 30.02 in 10.0 mi SW 8.1 mph 19.6 mph N/A Thunderstorm Thunderstorm
8:11 PM 82.4 °F 89.5 °F 75.2 °F 79% 30.02 in 10.0 mi SW 8.1 mph 19.6 mph N/A Rain , Thunderstorm Light Thunderstorms and Rain
8:53 PM 75.2 °F - 68.0 °F 78% 30.00 in 10.0 mi ENE 5.8 mph - N/A   Scattered Clouds
9:53 PM 73.4 °F - 68.0 °F 83% 30.02 in 10.0 mi ENE 3.5 mph - N/A   Partly Cloudy
10:53 PM 73.0 °F - 68.0 °F 84% 30.03 in 10.0 mi SE 5.8 mph - N/A   Partly Cloudy